Year,Month,Day,Hour,Minute,Value (Times are PST for temperature in C)
2015,08,03,00,00,17.90
2015,08,03,00,01,17.90
2015,08,03,00,02,17.90
2015,08,03,00,03,17.80
2015,08,03,00,04,17.80
2015,08,03,00,05,17.80
2015,08,03,00,06,17.80
2015,08,03,00,07,17.80
2015,08,03,00,08,17.80
2015,08,03,00,09,17.80
2015,08,03,00,10,17.80
2015,08,03,00,11,17.80
2015,08,03,00,12,17.80
2015,08,03,00,13,17.80
2015,08,03,00,14,17.70
2015,08,03,00,15,17.70
2015,08,03,00,16,17.70
2015,08,03,00,17,17.70
2015,08,03,00,18,17.60
2015,08,03,00,19,17.60
2015,08,03,00,20,17.60
2015,08,03,00,21,17.60
2015,08,03,00,22,17.50
2015,08,03,00,23,17.50
2015,08,03,00,24,17.50
2015,08,03,00,25,17.40
2015,08,03,00,26,17.40
2015,08,03,00,27,17.40
2015,08,03,00,28,17.30
2015,08,03,00,29,17.30
2015,08,03,00,30,17.30
2015,08,03,00,31,17.30
2015,08,03,00,32,17.20
2015,08,03,00,33,17.20
2015,08,03,00,34,17.20
2015,08,03,00,35,17.20
2015,08,03,00,36,17.20
2015,08,03,00,37,17.10
2015,08,03,00,38,17.10
2015,08,03,00,39,17.10
2015,08,03,00,40,17.10
2015,08,03,00,41,17.10
2015,08,03,00,42,17.00
2015,08,03,00,43,17.00
2015,08,03,00,44,17.00
2015,08,03,00,45,16.90
2015,08,03,00,46,16.90
2015,08,03,00,47,16.90
2015,08,03,00,48,16.80
2015,08,03,00,49,16.80
2015,08,03,00,50,16.80
2015,08,03,00,51,16.80
2015,08,03,00,52,16.80
2015,08,03,00,53,16.80
2015,08,03,00,54,16.80
2015,08,03,00,55,16.70
2015,08,03,00,56,16.70
2015,08,03,00,57,16.70
2015,08,03,00,58,16.70
2015,08,03,00,59,16.70
2015,08,03,01,00,16.70
2015,08,03,01,01,16.70
2015,08,03,01,02,16.70
2015,08,03,01,03,16.70
2015,08,03,01,04,16.70
2015,08,03,01,05,16.70
2015,08,03,01,06,16.70
2015,08,03,01,07,16.70
2015,08,03,01,08,16.70
2015,08,03,01,09,16.70
2015,08,03,01,10,16.60
2015,08,03,01,11,16.60
2015,08,03,01,12,16.60
2015,08,03,01,13,16.60
2015,08,03,01,14,16.60
2015,08,03,01,15,16.60
2015,08,03,01,16,16.60
2015,08,03,01,17,16.60
2015,08,03,01,18,16.50
2015,08,03,01,19,16.50
2015,08,03,01,20,16.50
2015,08,03,01,21,16.50
2015,08,03,01,22,16.40
2015,08,03,01,23,16.40
2015,08,03,01,24,16.40
2015,08,03,01,25,16.40
2015,08,03,01,26,16.40
2015,08,03,01,27,16.40
2015,08,03,01,28,16.30
2015,08,03,01,29,16.30
2015,08,03,01,30,16.30
2015,08,03,01,31,16.30
2015,08,03,01,32,16.30
2015,08,03,01,33,16.30
2015,08,03,01,34,16.30
2015,08,03,01,35,16.30
2015,08,03,01,36,16.30
2015,08,03,01,37,16.30
2015,08,03,01,38,16.30
2015,08,03,01,39,16.20
2015,08,03,01,40,16.20
2015,08,03,01,41,16.20
2015,08,03,01,42,16.20
2015,08,03,01,43,16.20
2015,08,03,01,44,16.20
2015,08,03,01,45,16.20
2015,08,03,01,46,16.20
2015,08,03,01,47,16.10
2015,08,03,01,48,16.10
2015,08,03,01,49,16.10
2015,08,03,01,50,16.10
2015,08,03,01,51,16.10
2015,08,03,01,52,16.10
2015,08,03,01,53,16.10
2015,08,03,01,54,16.10
2015,08,03,01,55,16.10
2015,08,03,01,56,16.10
2015,08,03,01,57,16.00
2015,08,03,01,58,16.00
2015,08,03,01,59,16.00
2015,08,03,02,00,16.00
2015,08,03,02,01,15.90
2015,08,03,02,02,15.90
2015,08,03,02,03,15.90
2015,08,03,02,04,15.90
2015,08,03,02,05,15.80
2015,08,03,02,06,15.80
2015,08,03,02,07,15.80
2015,08,03,02,08,15.80
2015,08,03,02,09,15.80
2015,08,03,02,10,15.70
2015,08,03,02,11,15.70
2015,08,03,02,12,15.70
2015,08,03,02,13,15.70
2015,08,03,02,14,15.70
2015,08,03,02,15,15.70
2015,08,03,02,16,15.60
2015,08,03,02,17,15.60
2015,08,03,02,18,15.60
2015,08,03,02,19,15.60
2015,08,03,02,20,15.50
2015,08,03,02,21,15.50
2015,08,03,02,22,15.50
2015,08,03,02,23,15.50
2015,08,03,02,24,15.50
2015,08,03,02,25,15.40
2015,08,03,02,26,15.40
2015,08,03,02,27,15.40
2015,08,03,02,28,15.40
2015,08,03,02,29,15.40
2015,08,03,02,30,15.30
2015,08,03,02,31,15.30
2015,08,03,02,32,15.30
2015,08,03,02,33,15.30
2015,08,03,02,34,15.20
2015,08,03,02,35,15.20
2015,08,03,02,36,15.20
2015,08,03,02,37,15.20
2015,08,03,02,38,15.10
2015,08,03,02,39,15.10
2015,08,03,02,40,15.10
2015,08,03,02,41,15.00
2015,08,03,02,42,15.00
2015,08,03,02,43,15.00
2015,08,03,02,44,14.90
2015,08,03,02,45,14.90
2015,08,03,02,46,14.90
2015,08,03,02,47,14.90
2015,08,03,02,48,14.80
2015,08,03,02,49,14.80
2015,08,03,02,50,14.80
2015,08,03,02,51,14.80
2015,08,03,02,52,14.80
2015,08,03,02,53,14.80
2015,08,03,02,54,14.80
2015,08,03,02,55,14.80
2015,08,03,02,56,14.80
2015,08,03,02,57,14.70
2015,08,03,02,58,14.70
2015,08,03,02,59,14.70
2015,08,03,03,00,14.70
2015,08,03,03,01,14.70
2015,08,03,03,02,14.70
2015,08,03,03,03,14.70
2015,08,03,03,04,14.70
2015,08,03,03,05,14.70
2015,08,03,03,06,14.70
2015,08,03,03,07,14.70
2015,08,03,03,08,14.70
2015,08,03,03,09,14.70
2015,08,03,03,10,14.70
2015,08,03,03,11,14.70
2015,08,03,03,12,14.70
2015,08,03,03,13,14.70
2015,08,03,03,14,14.70
2015,08,03,03,15,14.70
2015,08,03,03,16,14.70
2015,08,03,03,17,14.70
2015,08,03,03,18,14.70
2015,08,03,03,19,14.70
2015,08,03,03,20,14.70
2015,08,03,03,21,14.70
2015,08,03,03,22,14.70
2015,08,03,03,23,14.70
2015,08,03,03,24,14.70
2015,08,03,03,25,14.70
2015,08,03,03,26,14.70
2015,08,03,03,27,14.70
2015,08,03,03,28,14.70
2015,08,03,03,29,14.70
2015,08,03,03,30,14.60
2015,08,03,03,31,14.60
2015,08,03,03,32,14.60
2015,08,03,03,33,14.50
2015,08,03,03,34,14.50
2015,08,03,03,35,14.50
2015,08,03,03,36,14.40
2015,08,03,03,37,14.40
2015,08,03,03,38,14.40
2015,08,03,03,39,14.40
2015,08,03,03,40,14.40
2015,08,03,03,41,14.40
2015,08,03,03,42,14.40
2015,08,03,03,43,14.30
2015,08,03,03,44,14.30
2015,08,03,03,45,14.30
2015,08,03,03,46,14.30
2015,08,03,03,47,14.20
2015,08,03,03,48,14.20
2015,08,03,03,49,14.20
2015,08,03,03,50,14.20
2015,08,03,03,51,14.20
2015,08,03,03,52,14.20
2015,08,03,03,53,14.20
2015,08,03,03,54,14.20
2015,08,03,03,55,14.20
2015,08,03,03,56,14.20
2015,08,03,03,57,14.20
2015,08,03,03,58,14.20
2015,08,03,03,59,14.20
2015,08,03,04,00,14.20
2015,08,03,04,01,14.20
2015,08,03,04,02,14.20
2015,08,03,04,03,14.20
2015,08,03,04,04,14.20
2015,08,03,04,05,14.20
2015,08,03,04,06,14.10
2015,08,03,04,07,14.10
2015,08,03,04,08,14.10
2015,08,03,04,09,14.10
2015,08,03,04,10,14.00
2015,08,03,04,11,14.00
2015,08,03,04,12,14.00
2015,08,03,04,13,13.90
2015,08,03,04,14,13.90
2015,08,03,04,15,13.90
2015,08,03,04,16,13.80
2015,08,03,04,17,13.80
2015,08,03,04,18,13.80
2015,08,03,04,19,13.70
2015,08,03,04,20,13.70
2015,08,03,04,21,13.70
2015,08,03,04,22,13.70
2015,08,03,04,23,13.70
2015,08,03,04,24,13.70
2015,08,03,04,25,13.70
2015,08,03,04,26,13.70
2015,08,03,04,27,13.70
2015,08,03,04,28,13.70
2015,08,03,04,29,13.80
2015,08,03,04,30,13.80
2015,08,03,04,31,13.80
2015,08,03,04,32,13.80
2015,08,03,04,33,13.80
2015,08,03,04,34,13.80
2015,08,03,04,35,13.80
2015,08,03,04,36,13.80
2015,08,03,04,37,13.80
2015,08,03,04,38,13.80
2015,08,03,04,39,13.70
2015,08,03,04,40,13.70
2015,08,03,04,41,13.70
2015,08,03,04,42,13.70
2015,08,03,04,43,13.70
2015,08,03,04,44,13.70
2015,08,03,04,45,13.70
2015,08,03,04,46,13.60
2015,08,03,04,47,13.60
2015,08,03,04,48,13.60
2015,08,03,04,49,13.60
2015,08,03,04,50,13.60
2015,08,03,04,51,13.60
2015,08,03,04,52,13.60
2015,08,03,04,53,13.60
2015,08,03,04,54,13.60
2015,08,03,04,55,13.60
2015,08,03,04,56,13.60
2015,08,03,04,57,13.60
2015,08,03,04,58,13.60
2015,08,03,04,59,13.60
2015,08,03,05,00,13.60
2015,08,03,05,01,13.60
2015,08,03,05,02,13.50
2015,08,03,05,03,13.50
2015,08,03,05,04,13.50
2015,08,03,05,05,13.50
2015,08,03,05,06,13.50
2015,08,03,05,07,13.40
2015,08,03,05,08,13.40
2015,08,03,05,09,13.40
2015,08,03,05,10,13.40
2015,08,03,05,11,13.40
2015,08,03,05,12,13.40
2015,08,03,05,13,13.40
2015,08,03,05,14,13.40
2015,08,03,05,15,13.40
2015,08,03,05,16,13.40
2015,08,03,05,17,13.40
2015,08,03,05,18,13.40
2015,08,03,05,19,13.40
2015,08,03,05,20,13.40
2015,08,03,05,21,13.30
2015,08,03,05,22,13.30
2015,08,03,05,23,13.30
2015,08,03,05,24,13.30
2015,08,03,05,25,13.30
2015,08,03,05,26,13.30
2015,08,03,05,27,13.30
2015,08,03,05,28,13.30
2015,08,03,05,29,13.30
2015,08,03,05,30,13.30
2015,08,03,05,31,13.30
2015,08,03,05,32,13.40
2015,08,03,05,33,13.40
2015,08,03,05,34,13.40
2015,08,03,05,35,13.40
2015,08,03,05,36,13.40
2015,08,03,05,37,13.40
2015,08,03,05,38,13.40
2015,08,03,05,39,13.40
2015,08,03,05,40,13.40
2015,08,03,05,41,13.40
2015,08,03,05,42,13.40
2015,08,03,05,43,13.40
2015,08,03,05,44,13.40
2015,08,03,05,45,13.30
2015,08,03,05,46,13.30
2015,08,03,05,47,13.30
2015,08,03,05,48,13.30
2015,08,03,05,49,13.30
2015,08,03,05,50,13.30
2015,08,03,05,51,13.30
2015,08,03,05,52,13.30
2015,08,03,05,53,13.30
2015,08,03,05,54,13.30
2015,08,03,05,55,13.30
2015,08,03,05,56,13.30
2015,08,03,05,57,13.30
2015,08,03,05,58,13.30
2015,08,03,05,59,13.30
2015,08,03,06,00,13.20
2015,08,03,06,01,13.30
2015,08,03,06,02,13.20
2015,08,03,06,03,13.20
2015,08,03,06,04,13.20
2015,08,03,06,05,13.20
2015,08,03,06,06,13.20
2015,08,03,06,07,13.20
2015,08,03,06,08,13.20
2015,08,03,06,09,13.30
2015,08,03,06,10,13.30
2015,08,03,06,11,13.30
2015,08,03,06,12,13.30
2015,08,03,06,13,13.30
2015,08,03,06,14,13.30
2015,08,03,06,15,13.30
2015,08,03,06,16,13.30
2015,08,03,06,17,13.30
2015,08,03,06,18,13.20
2015,08,03,06,19,13.30
2015,08,03,06,20,13.20
2015,08,03,06,21,13.20
2015,08,03,06,22,13.20
2015,08,03,06,23,13.20
2015,08,03,06,24,13.30
2015,08,03,06,25,13.30
2015,08,03,06,26,13.30
2015,08,03,06,27,13.30
2015,08,03,06,28,13.30
2015,08,03,06,29,13.30
2015,08,03,06,30,13.40
2015,08,03,06,31,13.40
2015,08,03,06,32,13.40
2015,08,03,06,33,13.40
2015,08,03,06,34,13.40
2015,08,03,06,35,13.40
2015,08,03,06,36,13.40
2015,08,03,06,37,13.30
2015,08,03,06,38,13.30
2015,08,03,06,39,13.30
2015,08,03,06,40,13.30
2015,08,03,06,41,13.30
2015,08,03,06,42,13.20
2015,08,03,06,43,13.20
2015,08,03,06,44,13.20
2015,08,03,06,45,13.20
2015,08,03,06,46,13.20
2015,08,03,06,47,13.20
2015,08,03,06,48,13.20
2015,08,03,06,49,13.20
2015,08,03,06,50,13.20
2015,08,03,06,51,13.20
2015,08,03,06,52,13.20
2015,08,03,06,53,13.20
2015,08,03,06,54,13.20
2015,08,03,06,55,13.20
2015,08,03,06,56,13.20
2015,08,03,06,57,13.30
2015,08,03,06,58,13.30
2015,08,03,06,59,13.30
2015,08,03,07,00,13.40
2015,08,03,07,01,13.40
2015,08,03,07,02,13.40
2015,08,03,07,03,13.50
2015,08,03,07,04,13.50
2015,08,03,07,05,13.60
2015,08,03,07,06,13.60
2015,08,03,07,07,13.70
2015,08,03,07,08,13.70
2015,08,03,07,09,13.80
2015,08,03,07,10,13.90
2015,08,03,07,11,13.90
2015,08,03,07,12,14.00
2015,08,03,07,13,14.10
2015,08,03,07,14,14.10
2015,08,03,07,15,14.20
2015,08,03,07,16,14.30
2015,08,03,07,17,14.30
2015,08,03,07,18,14.30
2015,08,03,07,19,14.40
2015,08,03,07,20,14.40
2015,08,03,07,21,14.40
2015,08,03,07,22,14.40
2015,08,03,07,23,14.50
2015,08,03,07,24,14.50
2015,08,03,07,25,14.50
2015,08,03,07,26,14.50
2015,08,03,07,27,14.60
2015,08,03,07,28,14.60
2015,08,03,07,29,14.70
2015,08,03,07,30,14.80
2015,08,03,07,31,14.80
2015,08,03,07,32,14.90
2015,08,03,07,33,14.90
2015,08,03,07,34,15.00
2015,08,03,07,35,15.00
2015,08,03,07,36,15.10
2015,08,03,07,37,15.20
2015,08,03,07,38,15.30
2015,08,03,07,39,15.50
2015,08,03,07,40,15.60
2015,08,03,07,41,15.70
2015,08,03,07,42,15.80
2015,08,03,07,43,15.90
2015,08,03,07,44,15.90
2015,08,03,07,45,16.00
2015,08,03,07,46,16.10
2015,08,03,07,47,16.10
2015,08,03,07,48,16.20
2015,08,03,07,49,16.20
2015,08,03,07,50,16.30
2015,08,03,07,51,16.30
2015,08,03,07,52,16.40
2015,08,03,07,53,16.40
2015,08,03,07,54,16.40
2015,08,03,07,55,16.50
2015,08,03,07,56,16.60
2015,08,03,07,57,16.70
2015,08,03,07,58,16.70
2015,08,03,07,59,16.80
2015,08,03,08,00,16.80
2015,08,03,08,01,16.90
2015,08,03,08,02,17.00
2015,08,03,08,03,17.00
2015,08,03,08,04,17.10
2015,08,03,08,05,17.10
2015,08,03,08,06,17.20
2015,08,03,08,07,17.20
2015,08,03,08,08,17.30
2015,08,03,08,09,17.30
2015,08,03,08,10,17.40
2015,08,03,08,11,17.40
2015,08,03,08,12,17.50
2015,08,03,08,13,17.50
2015,08,03,08,14,17.60
2015,08,03,08,15,17.60
2015,08,03,08,16,17.70
2015,08,03,08,17,17.70
2015,08,03,08,18,17.70
2015,08,03,08,19,17.70
2015,08,03,08,20,17.80
2015,08,03,08,21,17.80
2015,08,03,08,22,17.90
2015,08,03,08,23,17.90
2015,08,03,08,24,18.00
2015,08,03,08,25,18.10
2015,08,03,08,26,18.10
2015,08,03,08,27,18.10
2015,08,03,08,28,18.20
2015,08,03,08,29,18.20
2015,08,03,08,30,18.30
2015,08,03,08,31,18.30
2015,08,03,08,32,18.30
2015,08,03,08,33,18.30
2015,08,03,08,34,18.40
2015,08,03,08,35,18.40
2015,08,03,08,36,18.40
2015,08,03,08,37,18.40
2015,08,03,08,38,18.50
2015,08,03,08,39,18.50
2015,08,03,08,40,18.60
2015,08,03,08,41,18.60
2015,08,03,08,42,18.60
2015,08,03,08,43,18.60
2015,08,03,08,44,18.60
2015,08,03,08,45,18.60
2015,08,03,08,46,18.70
2015,08,03,08,47,18.70
2015,08,03,08,48,18.70
2015,08,03,08,49,18.70
2015,08,03,08,50,18.70
2015,08,03,08,51,18.80
2015,08,03,08,52,18.80
2015,08,03,08,53,18.90
2015,08,03,08,54,19.00
2015,08,03,08,55,19.00
2015,08,03,08,56,19.10
2015,08,03,08,57,19.10
2015,08,03,08,58,19.20
2015,08,03,08,59,19.20
2015,08,03,09,00,19.30
2015,08,03,09,01,19.20
2015,08,03,09,02,19.20
2015,08,03,09,03,19.30
2015,08,03,09,04,19.30
2015,08,03,09,05,19.30
2015,08,03,09,06,19.30
2015,08,03,09,07,19.30
2015,08,03,09,08,19.40
2015,08,03,09,09,19.40
2015,08,03,09,10,19.50
2015,08,03,09,11,19.50
2015,08,03,09,12,19.50
2015,08,03,09,13,19.60
2015,08,03,09,14,19.50
2015,08,03,09,15,19.50
2015,08,03,09,16,19.50
2015,08,03,09,17,19.50
2015,08,03,09,18,19.50
2015,08,03,09,19,19.40
2015,08,03,09,20,19.40
2015,08,03,09,21,19.40
2015,08,03,09,22,19.40
2015,08,03,09,23,19.50
2015,08,03,09,24,19.50
2015,08,03,09,25,19.60
2015,08,03,09,26,19.60
2015,08,03,09,27,19.70
2015,08,03,09,28,19.70
2015,08,03,09,29,19.70
2015,08,03,09,30,19.80
2015,08,03,09,31,19.80
2015,08,03,09,32,19.90
2015,08,03,09,33,20.00
2015,08,03,09,34,20.10
2015,08,03,09,35,20.10
2015,08,03,09,36,20.20
2015,08,03,09,37,20.30
2015,08,03,09,38,20.30
2015,08,03,09,39,20.30
2015,08,03,09,40,20.40
2015,08,03,09,41,20.40
2015,08,03,09,42,20.30
2015,08,03,09,43,20.30
2015,08,03,09,44,20.30
2015,08,03,09,45,20.30
2015,08,03,09,46,20.30
2015,08,03,09,47,20.30
2015,08,03,09,48,20.40
2015,08,03,09,49,20.50
2015,08,03,09,50,20.50
2015,08,03,09,51,20.60
2015,08,03,09,52,20.60
2015,08,03,09,53,20.60
2015,08,03,09,54,20.60
2015,08,03,09,55,20.60
2015,08,03,09,56,20.60
2015,08,03,09,57,20.70
2015,08,03,09,58,20.70
2015,08,03,09,59,20.80
2015,08,03,10,00,20.80
2015,08,03,10,01,20.90
2015,08,03,10,02,21.00
2015,08,03,10,03,21.00
2015,08,03,10,04,21.10
2015,08,03,10,05,21.20
2015,08,03,10,06,21.30
2015,08,03,10,07,21.30
2015,08,03,10,08,21.30
2015,08,03,10,09,21.30
2015,08,03,10,10,21.30
2015,08,03,10,11,21.30
2015,08,03,10,12,21.30
2015,08,03,10,13,21.30
2015,08,03,10,14,21.30
2015,08,03,10,15,21.40
2015,08,03,10,16,21.40
2015,08,03,10,17,21.40
2015,08,03,10,18,21.50
2015,08,03,10,19,21.50
2015,08,03,10,20,21.60
2015,08,03,10,21,21.60
2015,08,03,10,22,21.70
2015,08,03,10,23,21.70
2015,08,03,10,24,21.70
2015,08,03,10,25,21.70
2015,08,03,10,26,21.70
2015,08,03,10,27,21.70
2015,08,03,10,28,21.70
2015,08,03,10,29,21.70
2015,08,03,10,30,21.70
2015,08,03,10,31,21.80
2015,08,03,10,32,21.80
2015,08,03,10,33,21.80
2015,08,03,10,34,21.90
2015,08,03,10,35,21.90
2015,08,03,10,36,22.00
2015,08,03,10,37,22.10
2015,08,03,10,38,22.20
2015,08,03,10,39,22.20
2015,08,03,10,40,22.30
2015,08,03,10,41,22.30
2015,08,03,10,42,22.30
2015,08,03,10,43,22.30
2015,08,03,10,44,22.30
2015,08,03,10,45,22.30
2015,08,03,10,46,22.30
2015,08,03,10,47,22.20
2015,08,03,10,48,22.20
2015,08,03,10,49,22.10
2015,08,03,10,50,22.10
2015,08,03,10,51,22.00
2015,08,03,10,52,22.00
2015,08,03,10,53,22.00
2015,08,03,10,54,21.90
2015,08,03,10,55,21.90
2015,08,03,10,56,21.90
2015,08,03,10,57,21.90
2015,08,03,10,58,21.90
2015,08,03,10,59,21.90
2015,08,03,11,00,21.90
2015,08,03,11,01,21.90
2015,08,03,11,02,22.00
2015,08,03,11,03,22.00
2015,08,03,11,04,22.10
2015,08,03,11,05,22.10
2015,08,03,11,06,22.10
2015,08,03,11,07,22.20
2015,08,03,11,08,22.20
2015,08,03,11,09,22.30
2015,08,03,11,10,22.40
2015,08,03,11,11,22.50
2015,08,03,11,12,22.40
2015,08,03,11,13,22.30
2015,08,03,11,14,22.30
2015,08,03,11,15,22.30
2015,08,03,11,16,22.30
2015,08,03,11,17,22.30
2015,08,03,11,18,22.30
2015,08,03,11,19,22.30
2015,08,03,11,20,22.40
2015,08,03,11,21,22.40
2015,08,03,11,22,22.50
2015,08,03,11,23,22.50
2015,08,03,11,24,22.60
2015,08,03,11,25,22.60
2015,08,03,11,26,22.60
2015,08,03,11,27,22.60
2015,08,03,11,28,22.70
2015,08,03,11,29,22.70
2015,08,03,11,30,22.80
2015,08,03,11,31,22.80
2015,08,03,11,32,22.80
2015,08,03,11,33,22.90
2015,08,03,11,34,23.00
2015,08,03,11,35,23.10
2015,08,03,11,36,23.20
2015,08,03,11,37,23.20
2015,08,03,11,38,23.30
2015,08,03,11,39,23.30
2015,08,03,11,40,23.30
2015,08,03,11,41,23.20
2015,08,03,11,42,23.20
2015,08,03,11,43,23.20
2015,08,03,11,44,23.20
2015,08,03,11,45,23.30
2015,08,03,11,46,23.30
2015,08,03,11,47,23.30
2015,08,03,11,48,23.40
2015,08,03,11,49,23.50
2015,08,03,11,50,23.60
2015,08,03,11,51,23.60
2015,08,03,11,52,23.70
2015,08,03,11,53,23.60
2015,08,03,11,54,23.60
2015,08,03,11,55,23.60
2015,08,03,11,56,23.70
2015,08,03,11,57,23.70
2015,08,03,11,58,23.60
2015,08,03,11,59,23.60
2015,08,03,12,00,23.70
2015,08,03,12,01,23.80
2015,08,03,12,02,23.80
2015,08,03,12,03,23.80
2015,08,03,12,04,23.80
2015,08,03,12,05,23.90
2015,08,03,12,06,23.90
2015,08,03,12,07,23.90
2015,08,03,12,08,23.90
2015,08,03,12,09,23.90
2015,08,03,12,10,23.90
2015,08,03,12,11,23.90
2015,08,03,12,12,24.00
2015,08,03,12,13,24.00
2015,08,03,12,14,24.00
2015,08,03,12,15,24.10
2015,08,03,12,16,24.10
2015,08,03,12,17,24.10
2015,08,03,12,18,24.10
2015,08,03,12,19,24.10
2015,08,03,12,20,24.20
2015,08,03,12,21,24.20
2015,08,03,12,22,24.10
2015,08,03,12,23,24.10
2015,08,03,12,24,24.10
2015,08,03,12,25,24.00
2015,08,03,12,26,24.00
2015,08,03,12,27,23.90
2015,08,03,12,28,23.80
2015,08,03,12,29,23.70
2015,08,03,12,30,23.50
2015,08,03,12,31,23.40
2015,08,03,12,32,23.30
2015,08,03,12,33,23.30
2015,08,03,12,34,23.30
2015,08,03,12,35,23.30
2015,08,03,12,36,23.30
2015,08,03,12,37,23.20
2015,08,03,12,38,23.10
2015,08,03,12,39,23.00
2015,08,03,12,40,22.90
2015,08,03,12,41,22.70
2015,08,03,12,42,22.70
2015,08,03,12,43,22.60
2015,08,03,12,44,22.50
2015,08,03,12,45,22.40
2015,08,03,12,46,22.30
2015,08,03,12,47,22.20
2015,08,03,12,48,22.20
2015,08,03,12,49,22.10
2015,08,03,12,50,22.00
2015,08,03,12,51,22.00
2015,08,03,12,52,22.10
2015,08,03,12,53,22.10
2015,08,03,12,54,22.20
2015,08,03,12,55,22.10
2015,08,03,12,56,22.10
2015,08,03,12,57,22.00
2015,08,03,12,58,21.90
2015,08,03,12,59,21.90
2015,08,03,13,00,22.00
2015,08,03,13,01,22.00
2015,08,03,13,02,22.10
2015,08,03,13,03,22.10
2015,08,03,13,04,22.10
2015,08,03,13,05,22.10
2015,08,03,13,06,22.10
2015,08,03,13,07,22.00
2015,08,03,13,08,21.90
2015,08,03,13,09,21.80
2015,08,03,13,10,21.80
2015,08,03,13,11,21.80
2015,08,03,13,12,21.80
2015,08,03,13,13,21.70
2015,08,03,13,14,21.70
2015,08,03,13,15,21.70
2015,08,03,13,16,21.70
2015,08,03,13,17,21.70
2015,08,03,13,18,21.70
2015,08,03,13,19,21.60
2015,08,03,13,20,21.60
2015,08,03,13,21,21.70
2015,08,03,13,22,21.70
2015,08,03,13,23,21.80
2015,08,03,13,24,21.80
2015,08,03,13,25,21.80
2015,08,03,13,26,21.80
2015,08,03,13,27,21.60
2015,08,03,13,28,21.60
2015,08,03,13,29,21.50
2015,08,03,13,30,21.50
2015,08,03,13,31,21.50
2015,08,03,13,32,21.50
2015,08,03,13,33,21.60
2015,08,03,13,34,21.60
2015,08,03,13,35,21.60
2015,08,03,13,36,21.70
2015,08,03,13,37,21.80
2015,08,03,13,38,21.90
2015,08,03,13,39,21.90
2015,08,03,13,40,21.90
2015,08,03,13,41,22.00
2015,08,03,13,42,22.00
2015,08,03,13,43,22.00
2015,08,03,13,44,22.10
2015,08,03,13,45,22.20
2015,08,03,13,46,22.20
2015,08,03,13,47,22.30
2015,08,03,13,48,22.40
2015,08,03,13,49,22.40
2015,08,03,13,50,22.50
2015,08,03,13,51,22.50
2015,08,03,13,52,22.60
2015,08,03,13,53,22.60
2015,08,03,13,54,22.70
2015,08,03,13,55,22.70
2015,08,03,13,56,22.70
2015,08,03,13,57,22.70
2015,08,03,13,58,22.70
2015,08,03,13,59,22.70
2015,08,03,14,00,22.60
2015,08,03,14,01,22.60
2015,08,03,14,02,22.60
2015,08,03,14,03,22.50
2015,08,03,14,04,22.40
2015,08,03,14,05,22.40
2015,08,03,14,06,22.40
2015,08,03,14,07,22.40
2015,08,03,14,08,22.40
2015,08,03,14,09,22.40
2015,08,03,14,10,22.30
2015,08,03,14,11,22.30
2015,08,03,14,12,22.40
2015,08,03,14,13,22.40
2015,08,03,14,14,22.40
2015,08,03,14,15,22.40
2015,08,03,14,16,22.50
2015,08,03,14,17,22.50
2015,08,03,14,18,22.60
2015,08,03,14,19,22.70
2015,08,03,14,20,22.80
2015,08,03,14,21,22.80
2015,08,03,14,22,22.90
2015,08,03,14,23,23.10
2015,08,03,14,24,23.20
2015,08,03,14,25,23.40
2015,08,03,14,26,23.50
2015,08,03,14,27,23.50
2015,08,03,14,28,23.50
2015,08,03,14,29,23.50
2015,08,03,14,30,23.40
2015,08,03,14,31,23.40
2015,08,03,14,32,23.40
2015,08,03,14,33,23.40
2015,08,03,14,34,23.50
2015,08,03,14,35,23.60
2015,08,03,14,36,23.80
2015,08,03,14,37,23.90
2015,08,03,14,38,23.90
2015,08,03,14,39,24.00
2015,08,03,14,40,23.90
2015,08,03,14,41,23.90
2015,08,03,14,42,23.90
2015,08,03,14,43,24.00
2015,08,03,14,44,24.00
2015,08,03,14,45,24.10
2015,08,03,14,46,24.00
2015,08,03,14,47,23.90
2015,08,03,14,48,23.90
2015,08,03,14,49,24.00
2015,08,03,14,50,24.00
2015,08,03,14,51,24.10
2015,08,03,14,52,24.20
2015,08,03,14,53,24.30
2015,08,03,14,54,24.40
2015,08,03,14,55,24.50
2015,08,03,14,56,24.50
2015,08,03,14,57,24.60
2015,08,03,14,58,24.60
2015,08,03,14,59,24.70
2015,08,03,15,00,24.70
2015,08,03,15,01,24.70
2015,08,03,15,02,24.60
2015,08,03,15,03,24.50
2015,08,03,15,04,24.50
2015,08,03,15,05,24.40
2015,08,03,15,06,24.30
2015,08,03,15,07,24.30
2015,08,03,15,08,24.20
2015,08,03,15,09,24.20
2015,08,03,15,10,24.20
2015,08,03,15,11,24.20
2015,08,03,15,12,24.30
2015,08,03,15,13,24.30
2015,08,03,15,14,24.40
2015,08,03,15,15,24.50
2015,08,03,15,16,24.50
2015,08,03,15,17,24.50
2015,08,03,15,18,24.40
2015,08,03,15,19,24.30
2015,08,03,15,20,24.30
2015,08,03,15,21,24.20
2015,08,03,15,22,24.20
2015,08,03,15,23,24.10
2015,08,03,15,24,24.10
2015,08,03,15,25,24.10
2015,08,03,15,26,24.10
2015,08,03,15,27,24.10
2015,08,03,15,28,24.10
2015,08,03,15,29,24.10
2015,08,03,15,30,24.10
2015,08,03,15,31,24.10
2015,08,03,15,32,24.10
2015,08,03,15,33,24.20
2015,08,03,15,34,24.20
2015,08,03,15,35,24.00
2015,08,03,15,36,24.00
2015,08,03,15,37,24.00
2015,08,03,15,38,24.00
2015,08,03,15,39,24.10
2015,08,03,15,40,24.10
2015,08,03,15,41,24.20
2015,08,03,15,42,24.20
2015,08,03,15,43,24.30
2015,08,03,15,44,24.30
2015,08,03,15,45,24.40
2015,08,03,15,46,24.40
2015,08,03,15,47,24.40
2015,08,03,15,48,24.50
2015,08,03,15,49,24.50
2015,08,03,15,50,24.40
2015,08,03,15,51,24.40
2015,08,03,15,52,24.30
2015,08,03,15,53,24.30
2015,08,03,15,54,24.30
2015,08,03,15,55,24.30
2015,08,03,15,56,24.40
2015,08,03,15,57,24.30
2015,08,03,15,58,24.20
2015,08,03,15,59,24.20
2015,08,03,16,00,24.30
2015,08,03,16,01,24.30
2015,08,03,16,02,24.30
2015,08,03,16,03,24.30
2015,08,03,16,04,24.40
2015,08,03,16,05,24.50
2015,08,03,16,06,24.60
2015,08,03,16,07,24.70
2015,08,03,16,08,24.70
2015,08,03,16,09,24.70
2015,08,03,16,10,24.70
2015,08,03,16,11,24.70
2015,08,03,16,12,24.70
2015,08,03,16,13,24.70
2015,08,03,16,14,24.70
2015,08,03,16,15,24.70
2015,08,03,16,16,24.70
2015,08,03,16,17,24.60
2015,08,03,16,18,24.60
2015,08,03,16,19,24.60
2015,08,03,16,20,24.60
2015,08,03,16,21,24.60
2015,08,03,16,22,24.60
2015,08,03,16,23,24.60
2015,08,03,16,24,24.70
2015,08,03,16,25,24.70
2015,08,03,16,26,24.70
2015,08,03,16,27,24.70
2015,08,03,16,28,24.70
2015,08,03,16,29,24.60
2015,08,03,16,30,24.60
2015,08,03,16,31,24.60
2015,08,03,16,32,24.60
2015,08,03,16,33,24.60
2015,08,03,16,34,24.70
2015,08,03,16,35,24.70
2015,08,03,16,36,24.80
2015,08,03,16,37,24.80
2015,08,03,16,38,24.90
2015,08,03,16,39,24.80
2015,08,03,16,40,24.80
2015,08,03,16,41,24.80
2015,08,03,16,42,24.60
2015,08,03,16,43,24.60
2015,08,03,16,44,24.60
2015,08,03,16,45,24.50
2015,08,03,16,46,24.40
2015,08,03,16,47,24.40
2015,08,03,16,48,24.40
2015,08,03,16,49,24.40
2015,08,03,16,50,24.40
2015,08,03,16,51,24.40
2015,08,03,16,52,24.30
2015,08,03,16,53,24.30
2015,08,03,16,54,24.30
2015,08,03,16,55,24.30
2015,08,03,16,56,24.30
2015,08,03,16,57,24.30
2015,08,03,16,58,24.30
2015,08,03,16,59,24.30
2015,08,03,17,00,24.40
2015,08,03,17,01,24.40
2015,08,03,17,02,24.40
2015,08,03,17,03,24.40
2015,08,03,17,04,24.40
2015,08,03,17,05,24.40
2015,08,03,17,06,24.40
2015,08,03,17,07,24.30
2015,08,03,17,08,24.30
2015,08,03,17,09,24.20
2015,08,03,17,10,24.20
2015,08,03,17,11,24.20
2015,08,03,17,12,24.30
2015,08,03,17,13,24.30
2015,08,03,17,14,24.40
2015,08,03,17,15,24.40
2015,08,03,17,16,24.40
2015,08,03,17,17,24.30
2015,08,03,17,18,24.20
2015,08,03,17,19,24.20